TimePST,TemperatureF,Dew PointF,Humidity,Sea Level PressureIn,VisibilityMPH,Wind Direction,Wind SpeedMPH,Gust SpeedMPH,PrecipitationIn,Events,Conditions,WindDirDegrees,DateUTC
12:53 AM,46.0,37.9,73,30.25,10.0,Calm,Calm,-,N/A,,Clear,0,2012-01-09 08:53:00
1:53 AM,39.9,36.0,86,30.24,10.0,Calm,Calm,-,N/A,,Clear,0,2012-01-09 09:53:00
2:53 AM,37.9,34.0,86,30.24,10.0,Calm,Calm,-,N/A,,Clear,0,2012-01-09 10:53:00
3:53 AM,36.0,33.1,89,30.24,10.0,Calm,Calm,-,N/A,,Clear,0,2012-01-09 11:53:00
4:53 AM,37.9,34.0,86,30.23,10.0,ESE,5.8,-,N/A,,Clear,110,2012-01-09 12:53:00
5:53 AM,37.9,33.1,83,30.25,10.0,North,4.6,-,N/A,,Clear,10,2012-01-09 13:53:00
6:53 AM,37.0,32.0,82,30.26,10.0,Calm,Calm,-,N/A,,Clear,0,2012-01-09 14:53:00
7:53 AM,39.2,35.6,87,30.26,10.0,Calm,Calm,-,N/A,,Partly Cloudy,0,2012-01-09 15:53:00
8:53 AM,46.9,37.9,71,30.27,10.0,SE,3.5,-,N/A,,Partly Cloudy,130,2012-01-09 16:53:00
9:53 AM,51.1,42.1,71,30.28,10.0,South,4.6,-,N/A,,Partly Cloudy,180,2012-01-09 17:53:00
10:53 AM,50.0,42.1,74,30.27,10.0,SSW,4.6,-,N/A,,Partly Cloudy,200,2012-01-09 18:53:00
11:53 AM,52.0,42.1,69,30.23,10.0,Calm,Calm,-,N/A,,Clear,0,2012-01-09 19:53:00
12:53 PM,55.0,39.0,55,30.20,9.0,WSW,3.5,-,N/A,,Clear,250,2012-01-09 20:53:00
1:53 PM,54.0,42.1,64,30.18,9.0,West,5.8,-,N/A,,Clear,260,2012-01-09 21:53:00
2:53 PM,57.9,37.9,47,30.17,6.0,West,4.6,-,N/A,,Haze,270,2012-01-09 22:53:00
3:53 PM,55.9,43.0,62,30.17,6.0,West,5.8,-,N/A,,Haze,260,2012-01-09 23:53:00
4:53 PM,54.0,44.1,69,30.17,6.0,WNW,4.6,-,N/A,,Haze,290,2012-01-10 00:53:00
5:53 PM,51.1,45.0,80,30.18,7.0,WNW,5.8,-,N/A,,Partly Cloudy,290,2012-01-10 01:53:00
6:53 PM,48.0,42.1,80,30.18,7.0,Calm,Calm,-,N/A,,Partly Cloudy,0,2012-01-10 02:53:00
7:53 PM,48.0,42.1,80,30.18,6.0,Calm,Calm,-,N/A,,Haze,0,2012-01-10 03:53:00
8:53 PM,44.1,41.0,89,30.19,8.0,SE,4.6,-,N/A,,Partly Cloudy,140,2012-01-10 04:53:00
9:53 PM,45.0,39.0,80,30.18,8.0,Calm,Calm,-,N/A,,Partly Cloudy,0,2012-01-10 05:53:00
10:53 PM,41.0,37.9,89,30.18,9.0,Calm,Calm,-,N/A,,Partly Cloudy,0,2012-01-10 06:53:00
11:53 PM,43.0,39.0,86,30.18,7.0,Calm,Calm,-,N/A,,Clear,0,2012-01-10 07:53:00